STARLINK-37000, 68063

Orbit data source: Space-Track

STARLINK-37000, 68063 is a payload satellite owned by SpaceX/Seattle (US) in LEO that was launched on Mon, 02 Mar 2026 UTC via an FALCON 9 launch vehicle from the Air Force Eastern Test Range (AFETR). Payload-class satellites include a variety of spacecraft equipped with specific instruments for various scientific and technological missions. These include communications satellites like Starlink; space stations such as the ISS; scientific satellites like the Hubble; Earth observation satellites from companies like Planet Labs, Umbra, and HawkEye 360; GPS; miniature CubeSats for education and research; and military/defense satellites.

Loading next visibility...
Identifier
68063, 2026-041Z
Orbit
LEO
Country
Flag of USUS
Related business
Manufacturer
SpaceX/Seattle
Mission
Operational Commercial Communications
Bus & Motor
STARLINK V2MO, Unknown motor
Mass
575 kg wet, ~530 kg dry
Launch date (UTC)
2026-03-02 (2 months ago)
Launch vehicle
FALCON 9
Launch site
Air Force Eastern Test Range (AFETR)
Object type
Payload
Rocket body
Debris
Shape & HBR
Box + 2 Pan, 17.7 m
Radar Cross Section
36.964 m²

Expand to show TLE details & history
Last TLE update: 14 hours ago

TLE from 14 hours ago
0 STARLINK-37000
1 68063U 26041Z   26118.85961707  .00029281  00000-0  75858-3 0  9995
2 68063  53.1587 176.5525 0001493  67.7647 292.3515 15.38827278  9073
Epoch: 2026-04-28T20:37Z
TLE epoch observation values (Epoch: 2026-04-28T20:37:50.914Z)
Latitude
-0.0001°
Longitude
10.2614°
Altitude
450.091 km
Speed
7.644 km/s
True Right ascension
11h 46m 12s
True Declination
0° 00' 00"
Sunlit
Object was in full shadow at epoch
Visualization orbit readout
Latitude
Unknown
Longitude
Unknown
Altitude
Unknown
Speed
Unknown
Apparent Right ascension
Unknown
Apparent Declination
Unknown
Sunlit
N/A
Visualization observer readout
Local Sidereal Time
18:18:27
Azimuth
Unknown
Elevation
Unknown
Doppler factor
Unknown
Orbital elements
Apogee altitude
450.853 km
Perigee altitude
448.814 km
Semi-major axis
6,827.971 km
Eccentricity
0.00015
Inclination
53.1587°
RAAN
176.5525°
Arg. of periapsis
67.7647°
True anomaly
292.33568°
Mean anomaly
292.3515°
Eccentric anomaly
292.34359°
Mean motion
3.84685 °/min
Orbital period
93.58 mins
BSTAR
0.00075858
Loading maneuver chart data...
Computing Atmospheric mass density...
Loading historical data...
Loading historical data...
Loading historical data...
Loading historical data...
Loading historical data...
Loading historical data...
Loading historical data...

Documentation

Showing up to 5 results
|